Year,Month,Day,Hour,Minute,Value (Times are PST for temperature in C)
2017,05,20,00,00,12.20
2017,05,20,00,01,12.10
2017,05,20,00,02,12.10
2017,05,20,00,03,12.10
2017,05,20,00,04,12.10
2017,05,20,00,05,12.10
2017,05,20,00,06,12.00
2017,05,20,00,07,12.00
2017,05,20,00,08,12.00
2017,05,20,00,09,11.90
2017,05,20,00,10,11.90
2017,05,20,00,11,11.90
2017,05,20,00,12,11.90
2017,05,20,00,13,11.90
2017,05,20,00,14,11.80
2017,05,20,00,15,11.80
2017,05,20,00,16,11.80
2017,05,20,00,17,11.80
2017,05,20,00,18,11.80
2017,05,20,00,19,11.80
2017,05,20,00,20,11.80
2017,05,20,00,21,11.70
2017,05,20,00,22,11.70
2017,05,20,00,23,11.70
2017,05,20,00,24,11.70
2017,05,20,00,25,11.70
2017,05,20,00,26,11.70
2017,05,20,00,27,11.70
2017,05,20,00,28,11.60
2017,05,20,00,29,11.60
2017,05,20,00,30,11.60
2017,05,20,00,31,11.60
2017,05,20,00,32,11.60
2017,05,20,00,33,11.60
2017,05,20,00,34,11.50
2017,05,20,00,35,11.50
2017,05,20,00,36,11.50
2017,05,20,00,37,11.40
2017,05,20,00,38,11.40
2017,05,20,00,39,11.40
2017,05,20,00,40,11.40
2017,05,20,00,41,11.40
2017,05,20,00,42,11.30
2017,05,20,00,43,11.30
2017,05,20,00,44,11.30
2017,05,20,00,45,11.30
2017,05,20,00,46,11.30
2017,05,20,00,47,11.30
2017,05,20,00,48,11.30
2017,05,20,00,49,11.30
2017,05,20,00,50,11.30
2017,05,20,00,51,11.30
2017,05,20,00,52,11.20
2017,05,20,00,53,11.20
2017,05,20,00,54,11.20
2017,05,20,00,55,11.20
2017,05,20,00,56,11.20
2017,05,20,00,57,11.20
2017,05,20,00,58,11.20
2017,05,20,00,59,11.20
2017,05,20,01,00,11.30
2017,05,20,01,01,11.30
2017,05,20,01,02,11.30
2017,05,20,01,03,11.30
2017,05,20,01,04,11.30
2017,05,20,01,05,11.30
2017,05,20,01,06,11.40
2017,05,20,01,07,11.40
2017,05,20,01,08,11.40
2017,05,20,01,09,11.40
2017,05,20,01,10,11.40
2017,05,20,01,11,11.40
2017,05,20,01,12,11.40
2017,05,20,01,13,11.50
2017,05,20,01,14,11.50
2017,05,20,01,15,11.50
2017,05,20,01,16,11.50
2017,05,20,01,17,11.60
2017,05,20,01,18,11.60
2017,05,20,01,19,11.60
2017,05,20,01,20,11.60
2017,05,20,01,21,11.60
2017,05,20,01,22,11.60
2017,05,20,01,23,11.60
2017,05,20,01,24,11.60
2017,05,20,01,25,11.60
2017,05,20,01,26,11.60
2017,05,20,01,27,11.60
2017,05,20,01,28,11.60
2017,05,20,01,29,11.60
2017,05,20,01,30,11.60
2017,05,20,01,31,11.50
2017,05,20,01,32,11.50
2017,05,20,01,33,11.50
2017,05,20,01,34,11.50
2017,05,20,01,35,11.50
2017,05,20,01,36,11.50
2017,05,20,01,37,11.50
2017,05,20,01,38,11.40
2017,05,20,01,39,11.40
2017,05,20,01,40,11.40
2017,05,20,01,41,11.40
2017,05,20,01,42,11.40
2017,05,20,01,43,11.40
2017,05,20,01,44,11.30
2017,05,20,01,45,11.30
2017,05,20,01,46,11.30
2017,05,20,01,47,11.30
2017,05,20,01,48,11.30
2017,05,20,01,49,11.30
2017,05,20,01,50,11.30
2017,05,20,01,51,11.30
2017,05,20,01,52,11.30
2017,05,20,01,53,11.20
2017,05,20,01,54,11.20
2017,05,20,01,55,11.20
2017,05,20,01,56,11.20
2017,05,20,01,57,11.20
2017,05,20,01,58,11.20
2017,05,20,01,59,11.20
2017,05,20,02,00,11.20
2017,05,20,02,01,11.20
2017,05,20,02,02,11.10
2017,05,20,02,03,11.10
2017,05,20,02,04,11.10
2017,05,20,02,05,11.10
2017,05,20,02,06,11.10
2017,05,20,02,07,11.10
2017,05,20,02,08,11.00
2017,05,20,02,09,11.00
2017,05,20,02,10,11.00
2017,05,20,02,11,10.90
2017,05,20,02,12,10.90
2017,05,20,02,13,10.90
2017,05,20,02,14,10.90
2017,05,20,02,15,10.90
2017,05,20,02,16,10.80
2017,05,20,02,17,10.80
2017,05,20,02,18,10.80
2017,05,20,02,19,10.80
2017,05,20,02,20,10.80
2017,05,20,02,21,10.70
2017,05,20,02,22,10.70
2017,05,20,02,23,10.70
2017,05,20,02,24,10.70
2017,05,20,02,25,10.70
2017,05,20,02,26,10.70
2017,05,20,02,27,10.60
2017,05,20,02,28,10.60
2017,05,20,02,29,10.60
2017,05,20,02,30,10.60
2017,05,20,02,31,10.60
2017,05,20,02,32,10.60
2017,05,20,02,33,10.60
2017,05,20,02,34,10.50
2017,05,20,02,35,10.50
2017,05,20,02,36,10.50
2017,05,20,02,37,10.50
2017,05,20,02,38,10.40
2017,05,20,02,39,10.40
2017,05,20,02,40,10.40
2017,05,20,02,41,10.40
2017,05,20,02,42,10.40
2017,05,20,02,43,10.40
2017,05,20,02,44,10.40
2017,05,20,02,45,10.30
2017,05,20,02,46,10.30
2017,05,20,02,47,10.30
2017,05,20,02,48,10.30
2017,05,20,02,49,10.30
2017,05,20,02,50,10.30
2017,05,20,02,51,10.30
2017,05,20,02,52,10.30
2017,05,20,02,53,10.30
2017,05,20,02,54,10.30
2017,05,20,02,55,10.30
2017,05,20,02,56,10.30
2017,05,20,02,57,10.20
2017,05,20,02,58,10.20
2017,05,20,02,59,10.20
2017,05,20,03,00,10.20
2017,05,20,03,01,10.20
2017,05,20,03,02,10.20
2017,05,20,03,03,10.20
2017,05,20,03,04,10.10
2017,05,20,03,05,10.10
2017,05,20,03,06,10.10
2017,05,20,03,07,10.10
2017,05,20,03,08,10.10
2017,05,20,03,09,10.10
2017,05,20,03,10,10.00
2017,05,20,03,11,10.00
2017,05,20,03,12,10.00
2017,05,20,03,13,10.00
2017,05,20,03,14,10.00
2017,05,20,03,15,9.90
2017,05,20,03,16,9.90
2017,05,20,03,17,9.90
2017,05,20,03,18,9.90
2017,05,20,03,19,9.90
2017,05,20,03,20,9.90
2017,05,20,03,21,9.90
2017,05,20,03,22,9.90
2017,05,20,03,23,9.90
2017,05,20,03,24,9.90
2017,05,20,03,25,9.90
2017,05,20,03,26,9.90
2017,05,20,03,27,9.90
2017,05,20,03,28,9.80
2017,05,20,03,29,9.80
2017,05,20,03,30,9.80
2017,05,20,03,31,9.80
2017,05,20,03,32,9.80
2017,05,20,03,33,9.80
2017,05,20,03,34,9.80
2017,05,20,03,35,9.80
2017,05,20,03,36,9.80
2017,05,20,03,37,9.80
2017,05,20,03,38,9.80
2017,05,20,03,39,9.80
2017,05,20,03,40,9.80
2017,05,20,03,41,9.80
2017,05,20,03,42,9.80
2017,05,20,03,43,9.80
2017,05,20,03,44,9.80
2017,05,20,03,45,9.80
2017,05,20,03,46,9.80
2017,05,20,03,47,9.80
2017,05,20,03,48,9.80
2017,05,20,03,49,9.80
2017,05,20,03,50,9.80
2017,05,20,03,51,9.80
2017,05,20,03,52,9.80
2017,05,20,03,53,9.80
2017,05,20,03,54,9.80
2017,05,20,03,55,9.80
2017,05,20,03,56,9.80
2017,05,20,03,57,9.80
2017,05,20,03,58,9.80
2017,05,20,03,59,9.80
2017,05,20,04,00,9.80
2017,05,20,04,01,9.80
2017,05,20,04,02,9.80
2017,05,20,04,03,9.80
2017,05,20,04,04,9.80
2017,05,20,04,05,9.80
2017,05,20,04,06,9.80
2017,05,20,04,07,9.80
2017,05,20,04,08,9.80
2017,05,20,04,09,9.80
2017,05,20,04,10,9.80
2017,05,20,04,11,9.80
2017,05,20,04,12,9.80
2017,05,20,04,13,9.80
2017,05,20,04,14,9.80
2017,05,20,04,15,9.90
2017,05,20,04,16,9.90
2017,05,20,04,17,9.90
2017,05,20,04,18,9.90
2017,05,20,04,19,9.90
2017,05,20,04,20,9.90
2017,05,20,04,21,9.90
2017,05,20,04,22,10.00
2017,05,20,04,23,10.00
2017,05,20,04,24,10.00
2017,05,20,04,25,10.00
2017,05,20,04,26,10.00
2017,05,20,04,27,10.00
2017,05,20,04,28,10.00
2017,05,20,04,29,10.10
2017,05,20,04,30,10.10
2017,05,20,04,31,10.10
2017,05,20,04,32,10.10
2017,05,20,04,33,10.10
2017,05,20,04,34,10.10
2017,05,20,04,35,10.10
2017,05,20,04,36,10.10
2017,05,20,04,37,10.20
2017,05,20,04,38,10.20
2017,05,20,04,39,10.20
2017,05,20,04,40,10.20
2017,05,20,04,41,10.20
2017,05,20,04,42,10.20
2017,05,20,04,43,10.20
2017,05,20,04,44,10.20
2017,05,20,04,45,10.20
2017,05,20,04,46,10.20
2017,05,20,04,47,10.30
2017,05,20,04,48,10.30
2017,05,20,04,49,10.30
2017,05,20,04,50,10.30
2017,05,20,04,51,10.30
2017,05,20,04,52,10.30
2017,05,20,04,53,10.30
2017,05,20,04,54,10.40
2017,05,20,04,55,10.40
2017,05,20,04,56,10.40
2017,05,20,04,57,10.40
2017,05,20,04,58,10.40
2017,05,20,04,59,10.40
2017,05,20,05,00,10.40
2017,05,20,05,01,10.40
2017,05,20,05,02,10.40
2017,05,20,05,03,10.40
2017,05,20,05,04,10.40
2017,05,20,05,05,10.40
2017,05,20,05,06,10.40
2017,05,20,05,07,10.40
2017,05,20,05,08,10.40
2017,05,20,05,09,10.40
2017,05,20,05,10,10.40
2017,05,20,05,11,10.40
2017,05,20,05,12,10.40
2017,05,20,05,13,10.40
2017,05,20,05,14,10.40
2017,05,20,05,15,10.40
2017,05,20,05,16,10.40
2017,05,20,05,17,10.40
2017,05,20,05,18,10.30
2017,05,20,05,19,10.30
2017,05,20,05,20,10.30
2017,05,20,05,21,10.30
2017,05,20,05,22,10.30
2017,05,20,05,23,10.30
2017,05,20,05,24,10.30
2017,05,20,05,25,10.30
2017,05,20,05,26,10.30
2017,05,20,05,27,10.30
2017,05,20,05,28,10.30
2017,05,20,05,29,10.30
2017,05,20,05,30,10.30
2017,05,20,05,31,10.30
2017,05,20,05,32,10.20
2017,05,20,05,33,10.20
2017,05,20,05,34,10.20
2017,05,20,05,35,10.20
2017,05,20,05,36,10.20
2017,05,20,05,37,10.20
2017,05,20,05,38,10.20
2017,05,20,05,39,10.20
2017,05,20,05,40,10.20
2017,05,20,05,41,10.20
2017,05,20,05,42,10.10
2017,05,20,05,43,10.10
2017,05,20,05,44,10.10
2017,05,20,05,45,10.10
2017,05,20,05,46,10.10
2017,05,20,05,47,10.10
2017,05,20,05,48,10.00
2017,05,20,05,49,10.00
2017,05,20,05,50,10.00
2017,05,20,05,51,10.00
2017,05,20,05,52,9.90
2017,05,20,05,53,9.90
2017,05,20,05,54,9.90
2017,05,20,05,55,9.90
2017,05,20,05,56,9.80
2017,05,20,05,57,9.80
2017,05,20,05,58,9.80
2017,05,20,05,59,9.80
2017,05,20,06,00,9.80
2017,05,20,06,01,9.80
2017,05,20,06,02,9.80
2017,05,20,06,03,9.80
2017,05,20,06,04,9.80
2017,05,20,06,05,9.80
2017,05,20,06,06,9.80
2017,05,20,06,07,9.80
2017,05,20,06,08,9.80
2017,05,20,06,09,9.80
2017,05,20,06,10,9.80
2017,05,20,06,11,9.80
2017,05,20,06,12,9.80
2017,05,20,06,13,9.80
2017,05,20,06,14,9.80
2017,05,20,06,15,9.80
2017,05,20,06,16,9.80
2017,05,20,06,17,9.70
2017,05,20,06,18,9.70
2017,05,20,06,19,9.70
2017,05,20,06,20,9.70
2017,05,20,06,21,9.80
2017,05,20,06,22,9.80
2017,05,20,06,23,9.80
2017,05,20,06,24,9.80
2017,05,20,06,25,9.80
2017,05,20,06,26,9.80
2017,05,20,06,27,9.80
2017,05,20,06,28,9.80
2017,05,20,06,29,9.80
2017,05,20,06,30,9.80
2017,05,20,06,31,9.80
2017,05,20,06,32,9.80
2017,05,20,06,33,9.80
2017,05,20,06,34,9.80
2017,05,20,06,35,9.80
2017,05,20,06,36,9.80
2017,05,20,06,37,9.80
2017,05,20,06,38,9.80
2017,05,20,06,39,9.80
2017,05,20,06,40,9.90
2017,05,20,06,41,9.90
2017,05,20,06,42,9.90
2017,05,20,06,43,9.90
2017,05,20,06,44,9.90
2017,05,20,06,45,10.00
2017,05,20,06,46,10.00
2017,05,20,06,47,10.00
2017,05,20,06,48,10.10
2017,05,20,06,49,10.10
2017,05,20,06,50,10.10
2017,05,20,06,51,10.10
2017,05,20,06,52,10.20
2017,05,20,06,53,10.20
2017,05,20,06,54,10.20
2017,05,20,06,55,10.30
2017,05,20,06,56,10.30
2017,05,20,06,57,10.30
2017,05,20,06,58,10.40
2017,05,20,06,59,10.40
2017,05,20,07,00,10.40
2017,05,20,07,01,10.50
2017,05,20,07,02,10.50
2017,05,20,07,03,10.60
2017,05,20,07,04,10.60
2017,05,20,07,05,10.60
2017,05,20,07,06,10.60
2017,05,20,07,07,10.70
2017,05,20,07,08,10.70
2017,05,20,07,09,10.70
2017,05,20,07,10,10.70
2017,05,20,07,11,10.70
2017,05,20,07,12,10.80
2017,05,20,07,13,10.80
2017,05,20,07,14,10.80
2017,05,20,07,15,10.80
2017,05,20,07,16,10.90
2017,05,20,07,17,11.00
2017,05,20,07,18,11.00
2017,05,20,07,19,11.10
2017,05,20,07,20,11.20
2017,05,20,07,21,11.20
2017,05,20,07,22,11.30
2017,05,20,07,23,11.30
2017,05,20,07,24,11.30
2017,05,20,07,25,11.40
2017,05,20,07,26,11.40
2017,05,20,07,27,11.40
2017,05,20,07,28,11.50
2017,05,20,07,29,11.50
2017,05,20,07,30,11.60
2017,05,20,07,31,11.60
2017,05,20,07,32,11.70
2017,05,20,07,33,11.70
2017,05,20,07,34,11.80
2017,05,20,07,35,11.80
2017,05,20,07,36,11.80
2017,05,20,07,37,11.90
2017,05,20,07,38,11.90
2017,05,20,07,39,12.00
2017,05,20,07,40,12.10
2017,05,20,07,41,12.10
2017,05,20,07,42,12.20
2017,05,20,07,43,12.20
2017,05,20,07,44,12.20
2017,05,20,07,45,12.30
2017,05,20,07,46,12.30
2017,05,20,07,47,12.30
2017,05,20,07,48,12.40
2017,05,20,07,49,12.40
2017,05,20,07,50,12.50
2017,05,20,07,51,12.50
2017,05,20,07,52,12.60
2017,05,20,07,53,12.60
2017,05,20,07,54,12.60
2017,05,20,07,55,12.70
2017,05,20,07,56,12.70
2017,05,20,07,57,12.80
2017,05,20,07,58,12.80
2017,05,20,07,59,12.80
2017,05,20,08,00,12.90
2017,05,20,08,01,12.90
2017,05,20,08,02,13.00
2017,05,20,08,03,13.00
2017,05,20,08,04,13.10
2017,05,20,08,05,13.10
2017,05,20,08,06,13.20
2017,05,20,08,07,13.30
2017,05,20,08,08,13.30
2017,05,20,08,09,13.40
2017,05,20,08,10,13.50
2017,05,20,08,11,13.50
2017,05,20,08,12,13.60
2017,05,20,08,13,13.60
2017,05,20,08,14,13.70
2017,05,20,08,15,13.80
2017,05,20,08,16,13.80
2017,05,20,08,17,13.90
2017,05,20,08,18,14.00
2017,05,20,08,19,14.00
2017,05,20,08,20,14.10
2017,05,20,08,21,14.10
2017,05,20,08,22,14.20
2017,05,20,08,23,14.30
2017,05,20,08,24,14.40
2017,05,20,08,25,14.50
2017,05,20,08,26,14.60
2017,05,20,08,27,14.70
2017,05,20,08,28,14.80
2017,05,20,08,29,14.90
2017,05,20,08,30,15.00
2017,05,20,08,31,15.00
2017,05,20,08,32,15.10
2017,05,20,08,33,15.10
2017,05,20,08,34,15.10
2017,05,20,08,35,15.20
2017,05,20,08,36,15.20
2017,05,20,08,37,15.20
2017,05,20,08,38,15.30
2017,05,20,08,39,15.30
2017,05,20,08,40,15.40
2017,05,20,08,41,15.40
2017,05,20,08,42,15.50
2017,05,20,08,43,15.50
2017,05,20,08,44,15.60
2017,05,20,08,45,15.60
2017,05,20,08,46,15.60
2017,05,20,08,47,15.60
2017,05,20,08,48,15.70
2017,05,20,08,49,15.70
2017,05,20,08,50,15.70
2017,05,20,08,51,15.70
2017,05,20,08,52,15.70
2017,05,20,08,53,15.80
2017,05,20,08,54,15.80
2017,05,20,08,55,15.80
2017,05,20,08,56,15.90
2017,05,20,08,57,16.00
2017,05,20,08,58,16.00
2017,05,20,08,59,16.10
2017,05,20,09,00,16.10
2017,05,20,09,01,16.20
2017,05,20,09,02,16.20
2017,05,20,09,03,16.30
2017,05,20,09,04,16.40
2017,05,20,09,05,16.50
2017,05,20,09,06,16.60
2017,05,20,09,07,16.70
2017,05,20,09,08,16.70
2017,05,20,09,09,16.80
2017,05,20,09,10,16.80
2017,05,20,09,11,16.80
2017,05,20,09,12,16.90
2017,05,20,09,13,16.90
2017,05,20,09,14,16.90
2017,05,20,09,15,17.00
2017,05,20,09,16,17.00
2017,05,20,09,17,17.00
2017,05,20,09,18,17.00
2017,05,20,09,19,17.00
2017,05,20,09,20,16.90
2017,05,20,09,21,17.00
2017,05,20,09,22,17.00
2017,05,20,09,23,17.00
2017,05,20,09,24,17.00
2017,05,20,09,25,17.00
2017,05,20,09,26,17.00
2017,05,20,09,27,17.00
2017,05,20,09,28,17.00
2017,05,20,09,29,17.00
2017,05,20,09,30,17.10
2017,05,20,09,31,17.10
2017,05,20,09,32,17.10
2017,05,20,09,33,17.10
2017,05,20,09,34,17.10
2017,05,20,09,35,17.10
2017,05,20,09,36,17.20
2017,05,20,09,37,17.20
2017,05,20,09,38,17.20
2017,05,20,09,39,17.10
2017,05,20,09,40,17.10
2017,05,20,09,41,17.10
2017,05,20,09,42,17.10
2017,05,20,09,43,17.00
2017,05,20,09,44,17.00
2017,05,20,09,45,16.90
2017,05,20,09,46,16.90
2017,05,20,09,47,16.80
2017,05,20,09,48,16.80
2017,05,20,09,49,16.80
2017,05,20,09,50,16.80
2017,05,20,09,51,16.80
2017,05,20,09,52,16.80
2017,05,20,09,53,16.80
2017,05,20,09,54,16.80
2017,05,20,09,55,16.90
2017,05,20,09,56,16.90
2017,05,20,09,57,16.90
2017,05,20,09,58,16.90
2017,05,20,09,59,17.00
2017,05,20,10,00,17.00
2017,05,20,10,01,17.10
2017,05,20,10,02,17.10
2017,05,20,10,03,17.10
2017,05,20,10,04,17.10
2017,05,20,10,05,17.00
2017,05,20,10,06,16.90
2017,05,20,10,07,16.80
2017,05,20,10,08,16.70
2017,05,20,10,09,16.70
2017,05,20,10,10,16.60
2017,05,20,10,11,16.60
2017,05,20,10,12,16.60
2017,05,20,10,13,16.60
2017,05,20,10,14,16.60
2017,05,20,10,15,16.60
2017,05,20,10,16,16.60
2017,05,20,10,17,16.60
2017,05,20,10,18,16.60
2017,05,20,10,19,16.60
2017,05,20,10,20,16.60
2017,05,20,10,21,16.70
2017,05,20,10,22,16.70
2017,05,20,10,23,16.80
2017,05,20,10,24,16.80
2017,05,20,10,25,16.90
2017,05,20,10,26,17.00
2017,05,20,10,27,17.00
2017,05,20,10,28,17.10
2017,05,20,10,29,17.20
2017,05,20,10,30,17.20
2017,05,20,10,31,17.30
2017,05,20,10,32,17.40
2017,05,20,10,33,17.40
2017,05,20,10,34,17.40
2017,05,20,10,35,17.40
2017,05,20,10,36,17.40
2017,05,20,10,37,17.40
2017,05,20,10,38,17.40
2017,05,20,10,39,17.40
2017,05,20,10,40,17.40
2017,05,20,10,41,17.40
2017,05,20,10,42,17.40
2017,05,20,10,43,17.40
2017,05,20,10,44,17.40
2017,05,20,10,45,17.40
2017,05,20,10,46,17.30
2017,05,20,10,47,17.20
2017,05,20,10,48,17.10
2017,05,20,10,49,17.10
2017,05,20,10,50,17.10
2017,05,20,10,51,17.10
2017,05,20,10,52,17.10
2017,05,20,10,53,17.20
2017,05,20,10,54,17.30
2017,05,20,10,55,17.30
2017,05,20,10,56,17.40
2017,05,20,10,57,17.40
2017,05,20,10,58,17.40
2017,05,20,10,59,17.50
2017,05,20,11,00,17.50
2017,05,20,11,01,17.50
2017,05,20,11,02,17.50
2017,05,20,11,03,17.50
2017,05,20,11,04,17.50
2017,05,20,11,05,17.50
2017,05,20,11,06,17.50
2017,05,20,11,07,17.60
2017,05,20,11,08,17.60
2017,05,20,11,09,17.60
2017,05,20,11,10,17.60
2017,05,20,11,11,17.70
2017,05,20,11,12,17.70
2017,05,20,11,13,17.70
2017,05,20,11,14,17.70
2017,05,20,11,15,17.60
2017,05,20,11,16,17.60
2017,05,20,11,17,17.60
2017,05,20,11,18,17.60
2017,05,20,11,19,17.60
2017,05,20,11,20,17.60
2017,05,20,11,21,17.70
2017,05,20,11,22,17.60
2017,05,20,11,23,17.70
2017,05,20,11,24,17.70
2017,05,20,11,25,17.70
2017,05,20,11,26,17.60
2017,05,20,11,27,17.60
2017,05,20,11,28,17.60
2017,05,20,11,29,17.60
2017,05,20,11,30,17.60
2017,05,20,11,31,17.70
2017,05,20,11,32,17.70
2017,05,20,11,33,17.80
2017,05,20,11,34,17.80
2017,05,20,11,35,17.80
2017,05,20,11,36,17.90
2017,05,20,11,37,17.80
2017,05,20,11,38,17.90
2017,05,20,11,39,17.90
2017,05,20,11,40,18.00
2017,05,20,11,41,18.00
2017,05,20,11,42,18.10
2017,05,20,11,43,18.20
2017,05,20,11,44,18.30
2017,05,20,11,45,18.40
2017,05,20,11,46,18.50
2017,05,20,11,47,18.50
2017,05,20,11,48,18.60
2017,05,20,11,49,18.70
2017,05,20,11,50,18.80
2017,05,20,11,51,18.90
2017,05,20,11,52,18.90
2017,05,20,11,53,19.00
2017,05,20,11,54,19.00
2017,05,20,11,55,19.00
2017,05,20,11,56,19.00
2017,05,20,11,57,18.90
2017,05,20,11,58,18.90
2017,05,20,11,59,18.90
2017,05,20,12,00,18.90
2017,05,20,12,01,18.90
2017,05,20,12,02,18.90
2017,05,20,12,03,18.90
2017,05,20,12,04,18.90
2017,05,20,12,05,18.90
2017,05,20,12,06,18.90
2017,05,20,12,07,18.90
2017,05,20,12,08,18.90
2017,05,20,12,09,18.80
2017,05,20,12,10,18.70
2017,05,20,12,11,18.60
2017,05,20,12,12,18.60
2017,05,20,12,13,18.60
2017,05,20,12,14,18.60
2017,05,20,12,15,18.60
2017,05,20,12,16,18.70
2017,05,20,12,17,18.70
2017,05,20,12,18,18.70
2017,05,20,12,19,18.80
2017,05,20,12,20,18.80
2017,05,20,12,21,18.90
2017,05,20,12,22,18.90
2017,05,20,12,23,18.90
2017,05,20,12,24,18.90
2017,05,20,12,25,18.80
2017,05,20,12,26,18.80
2017,05,20,12,27,18.80
2017,05,20,12,28,18.80
2017,05,20,12,29,18.80
2017,05,20,12,30,18.80
2017,05,20,12,31,18.90
2017,05,20,12,32,18.90
2017,05,20,12,33,18.90
2017,05,20,12,34,19.00
2017,05,20,12,35,19.00
2017,05,20,12,36,18.90
2017,05,20,12,37,19.00
2017,05,20,12,38,19.10
2017,05,20,12,39,19.10
2017,05,20,12,40,19.20
2017,05,20,12,41,19.20
2017,05,20,12,42,19.20
2017,05,20,12,43,19.20
2017,05,20,12,44,19.20
2017,05,20,12,45,19.30
2017,05,20,12,46,19.30
2017,05,20,12,47,19.30
2017,05,20,12,48,19.40
2017,05,20,12,49,19.40
2017,05,20,12,50,19.40
2017,05,20,12,51,19.50
2017,05,20,12,52,19.50
2017,05,20,12,53,19.50
2017,05,20,12,54,19.60
2017,05,20,12,55,19.70
2017,05,20,12,56,19.70
2017,05,20,12,57,19.60
2017,05,20,12,58,19.60
2017,05,20,12,59,19.60
2017,05,20,13,00,19.50
2017,05,20,13,01,19.50
2017,05,20,13,02,19.40
2017,05,20,13,03,19.40
2017,05,20,13,04,19.30
2017,05,20,13,05,19.30
2017,05,20,13,06,19.30
2017,05,20,13,07,19.20
2017,05,20,13,08,19.20
2017,05,20,13,09,19.20
2017,05,20,13,10,19.20
2017,05,20,13,11,19.30
2017,05,20,13,12,19.30
2017,05,20,13,13,19.40
2017,05,20,13,14,19.50
2017,05,20,13,15,19.50
2017,05,20,13,16,19.50
2017,05,20,13,17,19.40
2017,05,20,13,18,19.30
2017,05,20,13,19,19.30
2017,05,20,13,20,19.20
2017,05,20,13,21,19.20
2017,05,20,13,22,19.10
2017,05,20,13,23,19.10
2017,05,20,13,24,19.00
2017,05,20,13,25,18.90
2017,05,20,13,26,18.90
2017,05,20,13,27,18.90
2017,05,20,13,28,18.90
2017,05,20,13,29,18.90
2017,05,20,13,30,18.90
2017,05,20,13,31,18.90
2017,05,20,13,32,19.00
2017,05,20,13,33,19.00
2017,05,20,13,34,19.10
2017,05,20,13,35,19.10
2017,05,20,13,36,19.10
2017,05,20,13,37,19.10
2017,05,20,13,38,19.10
2017,05,20,13,39,19.10
2017,05,20,13,40,19.10
2017,05,20,13,41,19.10
2017,05,20,13,42,19.10
2017,05,20,13,43,19.10
2017,05,20,13,44,19.20
2017,05,20,13,45,19.20
2017,05,20,13,46,19.20
2017,05,20,13,47,19.30
2017,05,20,13,48,19.30
2017,05,20,13,49,19.30
2017,05,20,13,50,19.30
2017,05,20,13,51,19.30
2017,05,20,13,52,19.30
2017,05,20,13,53,19.30
2017,05,20,13,54,19.40
2017,05,20,13,55,19.40
2017,05,20,13,56,19.50
2017,05,20,13,57,19.60
2017,05,20,13,58,19.70
2017,05,20,13,59,19.70
2017,05,20,14,00,19.80
2017,05,20,14,01,19.80
2017,05,20,14,02,19.90
2017,05,20,14,03,19.90
2017,05,20,14,04,19.90
2017,05,20,14,05,19.90
2017,05,20,14,06,19.90
2017,05,20,14,07,19.90
2017,05,20,14,08,19.90
2017,05,20,14,09,19.90
2017,05,20,14,10,19.90
2017,05,20,14,11,19.90
2017,05,20,14,12,20.00
2017,05,20,14,13,20.00
2017,05,20,14,14,20.10
2017,05,20,14,15,20.20
2017,05,20,14,16,20.20
2017,05,20,14,17,20.30
2017,05,20,14,18,20.30
2017,05,20,14,19,20.30
2017,05,20,14,20,20.30
2017,05,20,14,21,20.30
2017,05,20,14,22,20.40
2017,05,20,14,23,20.40
2017,05,20,14,24,20.40
2017,05,20,14,25,20.40
2017,05,20,14,26,20.40
2017,05,20,14,27,20.50
2017,05,20,14,28,20.50
2017,05,20,14,29,20.60
2017,05,20,14,30,20.60
2017,05,20,14,31,20.60
2017,05,20,14,32,20.60
2017,05,20,14,33,20.50
2017,05,20,14,34,20.50
2017,05,20,14,35,20.40
2017,05,20,14,36,20.40
2017,05,20,14,37,20.30
2017,05,20,14,38,20.30
2017,05,20,14,39,20.30
2017,05,20,14,40,20.30
2017,05,20,14,41,20.30
2017,05,20,14,42,20.30
2017,05,20,14,43,20.30
2017,05,20,14,44,20.30
2017,05,20,14,45,20.40
2017,05,20,14,46,20.40
2017,05,20,14,47,20.40
2017,05,20,14,48,20.50
2017,05,20,14,49,20.50
2017,05,20,14,50,20.50
2017,05,20,14,51,20.60
2017,05,20,14,52,20.60
2017,05,20,14,53,20.70
2017,05,20,14,54,20.80
2017,05,20,14,55,20.80
2017,05,20,14,56,20.90
2017,05,20,14,57,20.90
2017,05,20,14,58,21.00
2017,05,20,14,59,21.00
2017,05,20,15,00,21.10
2017,05,20,15,01,21.10
2017,05,20,15,02,21.20
2017,05,20,15,03,21.20
2017,05,20,15,04,21.20
2017,05,20,15,05,21.20
2017,05,20,15,06,21.20
2017,05,20,15,07,21.20
2017,05,20,15,08,21.20
2017,05,20,15,09,21.20
2017,05,20,15,10,21.20
2017,05,20,15,11,21.20
2017,05,20,15,12,21.20
2017,05,20,15,13,21.20
2017,05,20,15,14,21.20
2017,05,20,15,15,21.20
2017,05,20,15,16,21.20
2017,05,20,15,17,21.20
2017,05,20,15,18,21.10
2017,05,20,15,19,21.10
2017,05,20,15,20,21.10
2017,05,20,15,21,21.10
2017,05,20,15,22,21.10
2017,05,20,15,23,21.10
2017,05,20,15,24,21.20
2017,05,20,15,25,21.10
2017,05,20,15,26,21.10
2017,05,20,15,27,21.10
2017,05,20,15,28,21.00
2017,05,20,15,29,21.00
2017,05,20,15,30,21.00
2017,05,20,15,31,21.00
2017,05,20,15,32,21.00
2017,05,20,15,33,21.00
2017,05,20,15,34,21.00
2017,05,20,15,35,21.00
2017,05,20,15,36,20.90
2017,05,20,15,37,20.90
2017,05,20,15,38,20.90
2017,05,20,15,39,20.90
2017,05,20,15,40,20.90
2017,05,20,15,41,20.90
2017,05,20,15,42,20.80
2017,05,20,15,43,20.80
2017,05,20,15,44,20.80
2017,05,20,15,45,20.70
2017,05,20,15,46,20.70
2017,05,20,15,47,20.70
2017,05,20,15,48,20.70
2017,05,20,15,49,20.70
2017,05,20,15,50,20.70
2017,05,20,15,51,20.70
2017,05,20,15,52,20.70
2017,05,20,15,53,20.70
2017,05,20,15,54,20.70
2017,05,20,15,55,20.70
2017,05,20,15,56,20.80
2017,05,20,15,57,20.80
2017,05,20,15,58,20.80
2017,05,20,15,59,20.80
2017,05,20,16,00,20.80
2017,05,20,16,01,20.80
2017,05,20,16,02,20.80
2017,05,20,16,03,20.80
2017,05,20,16,04,20.90
2017,05,20,16,05,20.90
2017,05,20,16,06,20.90
2017,05,20,16,07,20.90
2017,05,20,16,08,21.00
2017,05,20,16,09,21.10
2017,05,20,16,10,21.10
2017,05,20,16,11,21.20
2017,05,20,16,12,21.20
2017,05,20,16,13,21.20
2017,05,20,16,14,21.10
2017,05,20,16,15,21.10
2017,05,20,16,16,21.10
2017,05,20,16,17,21.00
2017,05,20,16,18,21.00
2017,05,20,16,19,21.00
2017,05,20,16,20,20.90
2017,05,20,16,21,20.90
2017,05,20,16,22,21.00
2017,05,20,16,23,21.00
2017,05,20,16,24,21.10
2017,05,20,16,25,21.10
2017,05,20,16,26,21.10
2017,05,20,16,27,21.20
2017,05,20,16,28,21.30
2017,05,20,16,29,21.30
2017,05,20,16,30,21.30
2017,05,20,16,31,21.40
2017,05,20,16,32,21.40
2017,05,20,16,33,21.50
2017,05,20,16,34,21.50
2017,05,20,16,35,21.50
2017,05,20,16,36,21.60
2017,05,20,16,37,21.60
2017,05,20,16,38,21.60
2017,05,20,16,39,21.60
2017,05,20,16,40,21.50
2017,05,20,16,41,21.50
2017,05,20,16,42,21.50
2017,05,20,16,43,21.50
2017,05,20,16,44,21.50
2017,05,20,16,45,21.50
2017,05,20,16,46,21.40
2017,05,20,16,47,21.40
2017,05,20,16,48,21.40
2017,05,20,16,49,21.40
2017,05,20,16,50,21.40
2017,05,20,16,51,21.40
2017,05,20,16,52,21.40
2017,05,20,16,53,21.40
2017,05,20,16,54,21.40
2017,05,20,16,55,21.50
2017,05,20,16,56,21.50
2017,05,20,16,57,21.60
2017,05,20,16,58,21.60
2017,05,20,16,59,21.70
2017,05,20,17,00,21.70
2017,05,20,17,01,21.80
2017,05,20,17,02,21.80
2017,05,20,17,03,21.80
2017,05,20,17,04,21.80
2017,05,20,17,05,21.90
2017,05,20,17,06,21.90
2017,05,20,17,07,21.90
2017,05,20,17,08,21.80
2017,05,20,17,09,21.80
2017,05,20,17,10,21.80
2017,05,20,17,11,21.80
2017,05,20,17,12,21.80
2017,05,20,17,13,21.80
2017,05,20,17,14,21.70
2017,05,20,17,15,21.70
2017,05,20,17,16,21.70
2017,05,20,17,17,21.70
2017,05,20,17,18,21.80
2017,05,20,17,19,21.90
2017,05,20,17,20,21.90
2017,05,20,17,21,22.00
2017,05,20,17,22,22.00
2017,05,20,17,23,22.10
2017,05,20,17,24,22.00